COSMOS 2251 DEB

Satellite information

Favourite Embed

Satellite Type and Status

DEBRISIN ORBIT

Key statistics

Satellite COSMOS 2251 DEB at a glance.

Uptime

11869

Days in orbit

Revolutions

≈ 14.1

Per day

Orbit

LEO

Low Earth Orbit

Inclination

74.1

Latest

Satellite identification and parameters

Extended collection of information and parameters for COSMOS 2251 DEB.

Object identification

Identified? True

Debris? True

Object name: COSMOS 2251 DEB

International designator: 1993-036BNN

Object number (NORAD): 37533

Object ID (CCSDS): 37533

Country: COMMONWEALTH OF INDEPENDENT STATES (CIS)

Current information (Y/N): Y

RCS size: SMALL

Orbital parameters

Period: 101.972 minutes

Inclination: 74.0697 deg

SMA: 7230.153 km

Apoapsis: 966.286 km

Periapsis: 737.75 km

RAAN: 195.1706 deg

Eccentricy: 0.01580439

Argument of periapsis: 252.2523 deg

Mean anomaly: 106.1316 deg

Mean motion: 14.12152288 rev/day

Mean motion (dot): 0.00003939 rev/day2

B* drag term: 0.0019185157 1/REarth

Two-line elements (TLE)

Creation date: Dec. 11, 2025, 3:54 a.m.

Reference frame: TEME

Reference center: EARTH

Epoch: Dec. 10, 2025, 7:55 p.m. UTC

TLE line 0: 0 COSMOS 2251 DEB

TLE line 1: 1 37533U 93036BNN 25344.83029418 .00003939 00000-0 19185-2 0 9995

TLE line 2: 2 37533 74.0697 195.1706 0158044 252.2523 106.1316 14.12152288628949

Live tracking on map

Real-time ground track for satellite COSMOS 2251 DEB.

In-orbit conjunctions

A list of the most updated potential collisions computed for object COSMOS 2251 DEB.

Target Orbit TCA Probability of collision Miss distance Type
FEDSAT SSO 2025-04-15 20:55:09 0.0005594599 159.0 (m) PAYLOAD
CZ-6A DEB LEO 2024-11-14 21:23:42 0.0001956681 668.0 (m) DEBRIS

Associated space launch

Military communications satellite. Destroyed in a collision with Iridium 33.

COSMOS 2251 DEB was lifted into orbit during the mission ‘Kosmos-3M | Strela-2M 51’, on board a Kosmos-3M space rocket.

The launch took place on June 16, 1993, 4:17 a.m. from 132/1 (132L).

For more information about the launch, click the button.

Launch to space Kosmos-3M | Strela-2M 51
Kosmos-3M | Strela-2M 51

Agency: N/A

Status: Launch Successful

Launch date: June 16, 1993, 4:17 a.m. UTC

Rocket: Kosmos-3M

Launch pad: 132/1 (132L)

Location: Plesetsk Cosmodrome, Russian Federation

...

Latest news about this satellite

There are no fresh news available about this satellite. Check back as we update our databases every day.


Newsletter sign-up

Weekly statistics, charts and insights to help you stay on top of the space industry.